{"data":{"norad_id":53189,"intl_designator":"2022-084A","name":"STARLINK-4391","alt_names":[],"object_type":"PAYLOAD","status":"ACTIVE","operator":null,"country":"US","launch_date":"2022-07-22","launch_site_code":"AFWTR","launch_vehicle":null,"mission":null,"orbit_class":"UNKNOWN","rcs_meters":null,"size_class":null,"mass_kg":null,"dimensions":null,"purposes":["comms"],"wikipedia_slug":null,"has_3d_model":false,"image_url":null,"decayed_at":null,"tle_current":{"epoch":"2026-09-20T03:32:18.790080Z","epoch_age_seconds":102713,"freshness":"FRESH","line1":"1 53189U 22084A   26263.14743970  .00001107  00000+0  36612-4 0  9996","line2":"2 53189  97.2837 318.8993 0001396  92.7402 267.4000 15.33436391229378","mean_motion":15.33436391,"eccentricity":0.0001396,"inclination_deg":97.2837,"raan_deg":318.8993,"arg_perigee_deg":92.7402,"mean_anomaly_deg":267.4,"bstar":3.6612e-5,"rev_number":22937,"period_min":93.906731863911,"perigee_km":464.61340759689,"apogee_km":466.52417025315,"semimajor_km":6843.705788925,"source":"CELESTRAK","updated_at":"2026-09-20T09:00:40.188758Z"}}}